{"data":{"norad_id":53876,"epoch":"2026-05-23T23:35:19.956768Z","epoch_age_seconds":153037,"freshness":"FRESH","line1":"1 53876U 22102B   26143.98286987  .00030082  00000+0  64795-3 0  9995","line2":"2 53876  28.9921 359.6252 0002653  26.0553 334.0190 15.43232151202967","mean_motion":15.43232151,"eccentricity":0.0002653,"inclination_deg":28.9921,"raan_deg":359.6252,"arg_perigee_deg":26.0553,"mean_anomaly_deg":334.019,"bstar":0.00064795,"rev_number":20296,"period_min":93.310653168215,"perigee_km":434.76956092225,"apogee_km":438.38544843843,"semimajor_km":6814.7145046803,"source":"CELESTRAK","updated_at":"2026-05-25T13:37:58.442034Z"}}